Home   Weather   Memphis   Past weeks

Flag for USA Past Weather in Memphis, Tennessee, USA — Yesterday and Last 2 Weeks

Now
40 °F

Overcast.


Feels Like: 33 °F
Forecast: 28 / 39 °F
Wind: 12 mph from North

Location: Memphis International Airport

Current Time: Dec 8, 2016 at 1:59:04 am

Latest Report: Dec 8, 2016 at 12:54 am


Visibility: 10 mi

Pressure: 30.32 "Hg

Humidity: 51%

Dew Point: 23 °F

Location of MemphisLocation

Past Weather in Memphis — Graph

°F

Memphis Temperature Yesterday

Maximum temperature yesterday: 46 °F (at 1:54 pm)
Minimum temperature yesterday: 41 °F (at 5:54 am)
Average temperature yesterday: 43 °F

High & Low Weather Summary for the Past Weeks

 TemperatureHumidityPressure
High70 °F (Nov 29, 1:54 pm)100% (Nov 28, 3:54 pm)30.45 "Hg (Nov 28, 3:54 pm)
Low33 °F (Nov 27, 2:54 am)27% (Nov 23, 12:54 am)29.36 "Hg (Nov 28, 12:54 pm)
Average49 °F77%30.05 "Hg
* Reported Nov 22 11:54 pm — Dec 7 11:54 pm, Memphis, Weather by CustomWeather, © 2016

Note: Actual official high and low records may vary slightly from our data, if they occured in-between our weather recording intervals... More about our weather records

Advertising

Memphis Weather History for the Previous 24 Hours

Scroll right to see more
 ConditionsComfort  
Time TempWeatherWind HumidityBarometerVisibility
11:54 pm
Wed, Dec 7
41 °FOvercast.5 mph55%30.30 "Hg10 mi
10:54 pm41 °FOvercast.8 mph58%30.29 "Hg10 mi
9:54 pm42 °FMostly cloudy.10 mph65%30.27 "Hg10 mi
8:54 pm43 °FOvercast.9 mph65%30.25 "Hg10 mi
7:54 pm43 °FOvercast.5 mph68%30.23 "Hg10 mi
6:54 pm43 °FOvercast.6 mph68%30.22 "Hg10 mi
5:54 pm44 °FOvercast.7 mph63%30.21 "Hg10 mi
4:54 pm44 °FMostly cloudy.10 mph65%30.20 "Hg10 mi
3:57 pm45 °FMostly cloudy.8 mph66%30.18 "Hg10 mi
2:54 pm46 °FMostly cloudy.No wind61%30.16 "Hg10 mi
1:54 pm46 °FPartly sunny.6 mph63%30.14 "Hg10 mi
12:54 pm45 °FPartly sunny.6 mph63%30.15 "Hg10 mi
11:54 am45 °FOvercast.8 mph68%30.17 "Hg10 mi
10:54 am44 °FBroken clouds.7 mph71%30.19 "Hg10 mi
9:54 am43 °FMostly cloudy.12 mph74%30.21 "Hg10 mi
8:54 am42 °FBroken clouds.8 mph79%30.19 "Hg10 mi
7:54 am41 °FBroken clouds.12 mph82%30.18 "Hg7 mi
6:54 am41 °FFog.10 mph82%30.16 "Hg6 mi
5:54 am41 °FFog.9 mph86%30.15 "Hg5 mi
4:54 am42 °FOvercast.8 mph85%30.14 "Hg7 mi
3:54 am42 °FMostly cloudy.6 mph89%30.12 "Hg7 mi
2:54 am43 °FMostly cloudy.6 mph86%30.11 "Hg8 mi
1:54 am43 °FPassing clouds.7 mph86%30.11 "Hg8 mi
Weather by CustomWeather, © 2016

See weather overviewHow to use our weather pages